#timestamp,LO_Frequency,Hit,StdDev 
1620378015.3,286046952.6,N
1620378035.1,286046945.3,N
1620378055.9,286046943.3,N
1620378075.7,286046939.2,N
1620378095.5,286046933.7,Y
1620378115.4,286046962.4,P
1620378135.2,286046970.1,P
1620378155.0,286046977.2,P
1620378156.0,286046977.2,Y
1620378175.8,286047004.7,P
1620378195.6,286047003.2,N
1620378215.5,286047002.1,N
1620378235.3,286047012.3,N
1620378255.1,286047012.3,N
1620378275.9,286047005.1,N
1620378295.7,286047001.3,N
1620378315.6,286046999.3,N
1620378335.4,286046992.0,N
1620378355.2,286046987.0,N
1620378375.1,286046985.5,N
1620378376.0,286046985.5,N
1620378395.8,286046984.4,N
1620378415.6,286046982.3,N
1620378435.5,286046981.4,N
1620378455.3,286046981.5,N
1620378475.2,286046978.5,N
1620378495.9,286046974.9,N
1620378515.7,286046979.7,N
1620378535.6,286046987.7,N
1620378555.4,286046987.8,N
1620378575.2,286046983.8,N
1620378595.1,286046981.7,N
1620378596.0,286046981.7,N
1620378615.8,286046974.6,N
1620378635.7,286046972.7,N
1620378655.5,286046974.4,N
1620378675.3,286046971.0,N
1620378695.2,286046969.6,N
1620378715.0,286046964.7,N
1620378715.9,286046964.7,N
1620378735.8,286046963.8,N
1620378755.6,286046962.0,N
1620378775.4,286046959.2,Y
1620378795.3,286046977.2,P
1620378815.1,286046971.7,P
1620378835.8,286046967.8,P
1620378855.7,286046968.8,Y
1620378875.5,286046991.5,P
1620378895.4,286046988.7,N
1620378915.2,286046987.4,N
1620378935.0,286046985.5,N
1620378935.9,286046985.5,N
1620378955.8,286046987.3,N
1620378975.6,286046994.7,N
1620378995.5,286046995.5,N
1620379015.3,286046996.1,N
1620379035.1,286046995.3,N
1620379055.9,286046994.2,N
1620379075.7,286046990.5,N
1620379095.5,286046989.4,N
1620379115.4,286046987.9,N
1620379135.2,286046986.1,N
1620379155.1,286046994.6,N
1620379156.0,286046994.6,N
1620379175.8,286047006.5,N
1620379225.7,286047008.1,E
1620379235.6,286047006.3,N
1620379255.4,286047004.4,P
1620379275.3,286047003.5,P
1620379295.1,286047004.4,Y
1620379315.8,286047000.2,P
1620379335.7,286046998.7,N
1620379355.5,286046996.6,N
1620379375.4,286046993.4,N
1620379395.2,286046992.6,N
1620379415.0,286046989.8,N
1620379415.9,286046989.8,N
1620379435.8,286046986.3,N
1620379455.6,286046986.3,N
1620379475.4,286046989.4,N
1620379495.3,286046986.3,N
1620379515.1,286046982.2,Y
1620379535.9,286046991.1,P
1620379555.7,286046990.9,P
1620379575.5,286046990.6,P
1620379595.4,286046988.7,Y
1620379615.2,286046996.5,P
1620379635.1,286047001.0,N
1620379636.0,286047001.0,N
1620379655.8,286047002.6,N
1620379675.6,286047000.0,N
1620379695.5,286046999.8,N
1620379715.3,286047003.2,N
1620379735.1,286047003.0,N
1620379755.9,286047005.2,N
1620379775.7,286047014.8,Y
1620379795.6,286047025.7,P
1620379815.4,286047034.3,N
1620379835.2,286047037.7,N
1620379855.1,286047043.0,N
1620379856.0,286047043.0,N
1620379875.8,286047041.7,N
1620379895.7,286047038.1,N
1620379915.5,286047032.2,N
1620379935.3,286047025.5,N
1620379955.2,286047021.7,N
1620379975.0,286047017.0,N
1620379975.9,286047017.0,N
1620379995.8,286047013.5,N
1620380015.6,286047010.9,N
1620380035.4,286047015.8,N
1620380055.3,286047017.6,N
1620380075.1,286047020.3,N
1620380095.8,286047036.6,Y
1620380115.7,286047018.6,P
1620380135.5,286047024.4,P
1620380155.4,286047028.0,P
1620380175.2,286047027.9,Y
1620380195.0,286047000.4,P
1620380195.9,286047000.4,N
1620380215.8,286046997.4,N
1620380235.6,286046991.5,N
1620380255.5,286046982.3,N
1620380275.3,286046978.4,N
1620380295.1,286046975.5,N
1620380315.9,286046968.0,N
1620380335.7,286046975.1,N
1620380355.5,286046978.3,N
1620380375.4,286046970.9,N
1620380395.2,286046970.0,N
1620380415.1,286046968.3,N
1620380416.0,286046968.3,N
1620380435.8,286046983.4,N
1620380455.6,286046998.0,N
1620380475.5,286047010.7,N
1620380495.3,286047030.3,N
1620380515.1,286047044.7,N
1620380535.9,286047052.6,N
1620380555.7,286047059.0,N
1620380575.6,286047052.2,N
1620380595.4,286047045.5,N
1620380615.2,286047032.3,N
1620380635.1,286047021.8,N
1620380636.0,286047021.8,N
1620380655.8,286047010.0,N
1620380675.7,286047005.3,N
1620380695.5,286047005.8,N
1620380715.3,286047004.2,N
1620380735.2,286046999.1,N
1620380755.0,286046993.7,N
1620380755.9,286046993.7,N
1620380775.8,286047007.5,N
1620380795.6,286047009.2,N
1620380815.4,286047010.7,N
1620380835.3,286047007.0,N
1620380855.1,286047008.6,N
1620380875.8,286047006.4,N
1620380895.7,286047005.2,N
1620380915.5,286047004.6,N
1620380935.4,286047009.1,N
1620380955.2,286047014.1,N
1620380975.0,286047024.9,N
1620380975.9,286047024.9,N
1620380995.8,286047022.5,N
1620381015.6,286047021.6,N
1620381035.4,286047016.6,N
1620381055.3,286047012.2,N
1620381075.1,286047006.5,N
1620381095.9,286047010.1,N
1620381115.7,286047009.5,N
1620381135.5,286047005.4,N
1620381155.4,286047005.2,N
1620381175.2,286047006.0,N
1620381195.1,286047007.2,N
1620381196.0,286047007.2,N
1620381215.8,286047007.1,N
1620381235.6,286047003.9,N
1620381255.5,286046998.3,N
1620381275.3,286046994.1,N
1620381295.1,286046986.4,N
1620381315.9,286046983.5,N
1620381335.7,286046983.0,N
1620381355.6,286046983.4,N
1620381375.4,286046978.6,N
1620381395.2,286046971.4,N
1620381415.1,286046964.6,N
1620381416.0,286046964.6,N
1620381435.8,286046963.4,N
1620381455.7,286046959.1,N
1620381475.5,286046952.5,N
1620381495.3,286046948.6,N
1620381515.2,286046948.8,N
1620381535.0,286046944.9,N
1620381535.9,286046944.9,N
1620381555.7,286046942.7,N
1620381575.6,286046940.7,N
1620381595.4,286046937.9,N
